Mount Sterling, KY

9:43 PM EST on December 13, 2019 (GMT -0500)
Mount Sterling-Montgomery County

Weather History for KIOB - November, 2019

Change the Weather History Date:

Tuesday, November 12, 2019

  Actual Average Record
Temperature  
Mean Temperature 24 °F -  
Max Temperature 32 °F 55 °F 62 °F (2015)
Min Temperature 15 °F 36 °F 21 °F (2013)
Degree Days  
Heating Degree Days 40    
Moisture  
Dew Point 19 °F    
Average Humidity 83    
Maximum Humidity 100    
Minimum Humidity 68    
Precipitation  
Precipitation 0.00 in - - ()
Sea Level Pressure  
Sea Level Pressure 30.35 in    
Wind  
Wind Speed 8 mph ()    
Max Wind Speed 15 mph    
Max Gust Speed 23 mph    
Visibility 9.1 miles    
Events Snow    
Averages and records for this station are not official NWS values.
T = Trace of Precipitation, MM = Missing Value Source: Averaged Metar Reports

Daily Weather History Graph

Daily Weather History Graph

Search for Another Location

Airport or City:

Astronomy

Nov. 12, 2019 Rise Set
Actual Time 7:13 AM EST 5:26 PM EST
Civil Twilight 6:45 AM EST 5:54 PM EST
Nautical Twilight 6:13 AM EST 6:25 PM EST
Astronomical Twilight 5:42 AM EST 6:57 PM EST
Moon 5:52 PM EST (11/12) 7:04 AM EST (11/12)
Length of Visible Light 11h 09m
Length of Day
10h 13m
Full, 100% of the Moon is Illuminated
Nov 12
Full
Nov 19
Last Quarter
Nov 26
New
Dec 4
First Quarter
Dec 12
Full

Hourly Weather History & Observations

Time (EST) Temp. Windchill Dew Point Humidity Pressure Visibility Wind Dir Wind Speed Gust Speed Precip Events Conditions
12:15 AM 32.0 °F 23.6 °F 30.2 °F 93% 30.15 in 5.0 mi NNW 10.4 mph 17.3 mph N/A Snow Light Snow
1:15 AM 30.2 °F 20.2 °F 28.4 °F 93% 30.17 in 3.0 mi North 12.7 mph 23.0 mph N/A Snow Light Snow
1:35 AM 30.2 °F 21.9 °F 28.4 °F 93% 30.18 in 7.0 mi NNW 9.2 mph 21.9 mph N/A Snow Light Snow
1:55 AM 30.2 °F 19.3 °F 28.4 °F 93% 30.19 in 3.0 mi North 15.0 mph 20.7 mph N/A Snow Light Snow
2:15 AM 28.4 °F 20.4 °F 28.4 °F 100% 30.19 in 1.2 mi North 8.1 mph - N/A Snow Light Snow
2:35 AM 28.4 °F 21.2 °F 28.4 °F 100% 30.20 in 4.0 mi North 6.9 mph - N/A Snow Light Snow
2:55 AM 30.2 °F 21.3 °F 28.4 °F 93% 30.20 in 10.0 mi NNW 10.4 mph 17.3 mph N/A   Overcast
3:15 AM 28.4 °F 19.1 °F 24.8 °F 86% 30.20 in 7.0 mi NNW 10.4 mph 21.9 mph N/A   Overcast
3:35 AM 28.4 °F 19.1 °F 24.8 °F 86% 30.20 in 10.0 mi North 10.4 mph 17.3 mph N/A   Overcast
3:55 AM 28.4 °F 18.0 °F 24.8 °F 86% 30.21 in 10.0 mi NNW 12.7 mph 18.4 mph N/A   Overcast
4:15 AM 28.4 °F 20.4 °F 24.8 °F 86% 30.22 in 10.0 mi North 8.1 mph 16.1 mph N/A   Overcast
4:55 AM 28.4 °F 17.5 °F 23.0 °F 80% 30.25 in 10.0 mi North 13.8 mph 20.7 mph N/A   Overcast
5:35 AM 28.4 °F 21.2 °F 23.0 °F 80% 30.26 in 10.0 mi North 6.9 mph - N/A   Overcast
5:55 AM 28.4 °F 19.1 °F 23.0 °F 80% 30.27 in 10.0 mi NW 10.4 mph 17.3 mph N/A   Overcast
6:15 AM 26.6 °F 17.5 °F 23.0 °F 86% 30.27 in 10.0 mi NNW 9.2 mph 18.4 mph N/A   Overcast
6:35 AM 26.6 °F 15.7 °F 23.0 °F 86% 30.29 in 10.0 mi NNW 12.7 mph 18.4 mph N/A   Overcast
6:55 AM 26.6 °F 17.5 °F 21.2 °F 80% 30.30 in 10.0 mi NNW 9.2 mph 16.1 mph N/A   Overcast
7:15 AM 26.6 °F 19.1 °F 21.2 °F 80% 30.30 in 10.0 mi NNW 6.9 mph - N/A   Overcast
7:35 AM 26.6 °F 16.8 °F 21.2 °F 80% 30.32 in 10.0 mi NNW 10.4 mph - N/A   Overcast
7:55 AM 24.8 °F 15.3 °F 21.2 °F 86% 30.32 in 10.0 mi NW 9.2 mph - N/A   Overcast
8:15 AM 24.8 °F 16.1 °F 21.2 °F 86% 30.33 in 10.0 mi NNW 8.1 mph - N/A   Overcast
8:35 AM 23.0 °F 12.4 °F 21.2 °F 93% 30.34 in 4.0 mi NW 10.4 mph - N/A Snow Light Snow
8:55 AM 23.0 °F 13.1 °F 19.4 °F 86% 30.34 in 4.0 mi NW 9.2 mph 17.3 mph N/A Snow Light Snow
9:15 AM 23.0 °F 14.7 °F 19.4 °F 86% 30.35 in 4.0 mi NW 6.9 mph - N/A Snow Light Snow
9:35 AM 24.8 °F 16.1 °F 19.4 °F 80% 30.35 in 10.0 mi NW 8.1 mph - N/A Snow Light Snow
9:55 AM 23.0 °F 13.9 °F 19.4 °F 86% 30.35 in 10.0 mi NNW 8.1 mph - N/A Snow Light Snow
10:15 AM 24.8 °F 14.6 °F 19.4 °F 80% 30.35 in 10.0 mi NNW 10.4 mph - N/A   Overcast
10:35 AM 24.8 °F 14.0 °F 19.4 °F 80% 30.35 in 10.0 mi NW 11.5 mph 17.3 mph N/A   Overcast
10:55 AM 23.0 °F 11.1 °F 17.6 °F 80% 30.36 in 10.0 mi NNW 12.7 mph 17.3 mph N/A   Overcast
11:15 AM 24.8 °F 15.3 °F 17.6 °F 74% 30.36 in 10.0 mi NNW 9.2 mph - N/A   Overcast
11:35 AM 26.6 °F 18.2 °F 19.4 °F 74% 30.37 in 10.0 mi NNW 8.1 mph - N/A   Overcast
12:15 PM 23.0 °F 11.1 °F 17.6 °F 80% 30.37 in 10.0 mi North 12.7 mph 17.3 mph N/A   Overcast
12:35 PM 23.0 °F 12.4 °F 17.6 °F 80% 30.36 in 10.0 mi North 10.4 mph - N/A   Overcast
12:55 PM 24.8 °F 16.1 °F 19.4 °F 80% 30.36 in 10.0 mi NNW 8.1 mph - N/A   Overcast
1:15 PM 26.6 °F 17.5 °F 19.4 °F 74% 30.37 in 10.0 mi NW 9.2 mph - N/A   Overcast
1:55 PM 23.0 °F 13.1 °F 17.6 °F 80% 30.37 in 10.0 mi NNW 9.2 mph - N/A   Overcast
2:35 PM 24.8 °F 15.3 °F 17.6 °F 74% 30.36 in 10.0 mi North 9.2 mph - N/A   Overcast
2:55 PM 24.8 °F 16.9 °F 17.6 °F 74% 30.37 in 10.0 mi NNW 6.9 mph - N/A Snow Light Snow
3:15 PM 23.0 °F 15.8 °F 17.6 °F 80% 30.38 in 10.0 mi North 5.8 mph - N/A   Overcast
3:35 PM 23.0 °F 18.4 °F 17.6 °F 80% 30.38 in 10.0 mi North 3.5 mph - N/A Snow Light Snow
3:55 PM 23.0 °F 15.8 °F 15.8 °F 74% 30.38 in 10.0 mi North 5.8 mph - N/A   Overcast
4:15 PM 23.0 °F 13.9 °F 14.0 °F 68% 30.38 in 10.0 mi North 8.1 mph - N/A   Overcast
4:35 PM 23.0 °F 14.7 °F 14.0 °F 68% 30.39 in 10.0 mi North 6.9 mph - N/A   Overcast
4:55 PM 23.0 °F 14.7 °F 14.0 °F 68% 30.39 in 10.0 mi North 6.9 mph - N/A   Overcast
5:15 PM 21.2 °F 14.9 °F 14.0 °F 74% 30.39 in 10.0 mi NNW 4.6 mph - N/A   Mostly Cloudy
5:35 PM 21.2 °F 13.6 °F 14.0 °F 74% 30.40 in 10.0 mi NW 5.8 mph - N/A   Scattered Clouds
5:55 PM 21.2 °F 14.9 °F 15.8 °F 80% 30.40 in 10.0 mi NW 4.6 mph - N/A   Mostly Cloudy
6:15 PM 19.4 °F 14.3 °F 15.8 °F 86% 30.42 in 10.0 mi NW 3.5 mph - N/A   Scattered Clouds
6:35 PM 19.4 °F 14.3 °F 15.8 °F 86% 30.43 in 10.0 mi NW 3.5 mph - N/A   Scattered Clouds
6:55 PM 19.4 °F 12.8 °F 14.0 °F 80% 30.43 in 10.0 mi NW 4.6 mph - N/A   Scattered Clouds
7:15 PM 19.4 °F 12.8 °F 14.0 °F 80% 30.43 in 10.0 mi NW 4.6 mph - N/A   Scattered Clouds
7:35 PM 19.4 °F 14.3 °F 14.0 °F 80% 30.44 in 10.0 mi NNW 3.5 mph - N/A   Clear
7:55 PM 17.6 °F 10.7 °F 14.0 °F 86% 30.45 in 10.0 mi NW 4.6 mph - N/A   Clear
8:15 PM 17.6 °F 10.7 °F 14.0 °F 86% 30.45 in 10.0 mi NW 4.6 mph - N/A   Clear
8:35 PM 17.6 °F 10.7 °F 14.0 °F 86% 30.45 in 10.0 mi NNW 4.6 mph - N/A   Clear
8:55 PM 17.6 °F 9.3 °F 14.0 °F 86% 30.45 in 10.0 mi NW 5.8 mph - N/A   Clear
9:15 PM 17.6 °F 12.3 °F 15.8 °F 93% 30.45 in 10.0 mi NNW 3.5 mph - N/A   Clear
9:35 PM 17.6 °F 12.3 °F 15.8 °F 93% 30.44 in 10.0 mi NNW 3.5 mph - N/A   Clear
9:55 PM 17.6 °F - 14.0 °F 86% 30.44 in 10.0 mi Calm Calm - N/A   Clear
10:15 PM 17.6 °F - 14.0 °F 86% 30.44 in 10.0 mi Calm Calm - N/A   Clear
10:35 PM 17.6 °F - 14.0 °F 86% 30.45 in 10.0 mi Calm Calm - N/A   Clear
10:55 PM 17.6 °F - 14.0 °F 86% 30.44 in 10.0 mi Calm Calm - N/A   Clear
11:15 PM 17.6 °F 12.3 °F 14.0 °F 86% 30.44 in 10.0 mi North 3.5 mph - N/A   Clear
11:35 PM 17.6 °F - 14.0 °F 86% 30.43 in 10.0 mi Calm Calm - N/A   Clear
11:55 PM 15.8 °F - 14.0 °F 93% 30.42 in 10.0 mi Calm Calm - N/A   Clear